• Join FlightAware (Why Join?)
  • Login
  • US Flag 
03:28AM EST


 

Airport Tracker/Info


-or-


 

Live Flight TrackerFlight Track Log ✈ UPS1121 ✈ 03-May-2013 ✈ KALB - KBDL

Flight Track Log - Related Links

Times and Time Zones

All times are in EDT time to prevent confusion due to time zone crossing. See the UPS1121 flight status page for this flight to view local times or setup timezone preferences in your user account.

Time Position Orientation Groundspeed Altitude Reporting Facility
EDT Latitude Longitude Course Direction KTS MPH feet Rate Location/Type
09:37PM 42.7339 -73.8081 163° South 152 175 1,900  Level Boston Center
09:37PM 42.6906 -73.7903 163° South 206 237 4,600 2,579 Climbing Boston Center
09:38PM 42.6597 -73.7331 126° Southeast 212 244 6,800 2,818 Climbing Boston Center
09:40PM 42.6025 -73.6333 128° Southeast 260 299 10,800 1,909 Climbing Boston Center
09:41PM 42.5369 -73.5250 129° Southeast 323 372 11,000 109 Climbing Boston Center
09:41PM 42.4794 -73.4311 130° Southeast 348 400 11,000  Level Boston Center
09:43PM 42.4072 -73.3314 134° Southeast 345 397 11,000  Level Boston Center
09:43PM 42.3494 -73.2547 136° Southeast 343 395 11,000 -170 Level Boston Center
09:44PM 42.2728 -73.2089 156° South 299 344 10,700 -896 Descending Boston Center
09:46PM 42.1958 -73.1631 156° South 291 335 9,000 -1,512 Descending Boston Center
09:47PM 42.1150 -73.1258 161° South 285 328 7,500 -1,444 Descending Boston Center
09:47PM 42.0483 -73.0942 161° South 272 313 6,400 -1,138 Descending Boston Center
09:48PM 41.9797 -73.0600 160° South 261 300 5,300 -1,041 Descending Boston Center
09:49PM 41.9153 -73.0317 162° South 252 290 4,300 -916 Descending Boston Center
09:51PM 41.8531 -72.9808 149° Southeast 239 275 3,300 -639 Descending Boston Center
09:51PM 41.8200 -72.9386 136° Southeast 186 214 3,000 -162 Descending Boston Center
09:52PM 41.8078 -72.8831 106° East 163 188 3,000 -50 Level Boston Center
09:54PM 41.8308 -72.8331 58° Northeast 168 193 2,900 -512 Descending Boston Center
09:55PM 41.8683 -72.7803 46° Northeast 139 160 1,900 -843 Descending Boston Center
09:56PM 41.8956 -72.7497 40° Northeast 147 169 1,200 -684 Descending Boston Center
09:57PM 41.9167 -72.7192 47° Northeast 117 135 600 -590 Descending Boston Center
09:59PM 41.9333 -72.6833 56° Northeast  Level FlightAware Approximate
10:06PM 41.9392 -72.6834 56° Northeast  Level Estimated